Regional Weather Roundup
Issued by NWS

Home | Current Version | Previous Version | Graphics & Text | Print | Product List | Glossary On
Versions: 1 2 3 4 5 6 7 8 9 10 11 12 13 14 15 16 17 18 19 20 21 22 23 24 25 26 27 28 29 30 31 32 33 34 35 36 37 38 39 40 41 42 43 44 45 46 47 48 49 50
000
ASUS43 KIND 202300
RWRIN

WEATHER ROUNDUP FOR INDIANA
NATIONAL WEATHER SERVICE INDIANAPOLIS IN
700 PM EDT THU JUL 20 2017

NOTE: "FAIR" INDICATES FEW OR NO CLOUDS BELOW 12,000 FEET WITH NO
SIGNIFICANT WEATHER AND/OR OBSTRUCTIONS TO VISIBILITY.

* - STATION DOES NOT REPORT WEATHER SUCH AS PRECIPITATION OR FOG.

+ - STATION NOT QUALITY CONTROLLED BY THE NATIONAL WEATHER SERVICE.
    USE DATA WITH CAUTION...ESPECIALLY DEWPOINT AND RELATIVE
    HUMIDITY OBSERVATIONS.

INZ001>003-010>013-019-020-210000-
NORTHWEST INDIANA

CITY           SKY/WX    TMP DP  RH WIND       PRES   REMARKS
GARY /AIRPORT/ PTSUNNY   81  70  69 E7        29.97
KNOX *+        MOSUNNY   86  77  74 W7        29.95F HX  97
MICHIGAN CITY+ CLOUDY    79  70  73 CALM      29.97S
MONTICELLO +   CLOUDY    85  76  76 W3        29.96S
RENSSELAER +   CLOUDY    86  77  74 W5        29.96S HX  97

$$

LMZ046-743>745-210000-
SOUTHERN LAKE MICHIGAN

STATION/POSITION TIME  TEMP    WIND        PRES    WAVE
                       AIR SEA DIR/SP/G            HT
                 (UTC) (F)     (DEG/KT/KT) (MB)    (FT)
BURNS HARBOR     2240   76      70/ 10/ 11 1014.9F
MICHIGAN CITY    2230   75      50/ 10/ 11   N/A
5NW MICH CITY    2250   75 74   70/  6/  8   N/A     1

$$

INZ004-005-014>016-021>024-210000-
NORTH CENTRAL INDIANA

CITY           SKY/WX    TMP DP  RH WIND       PRES   REMARKS
ELKHART        MOSUNNY   86  72  62 NW6       29.96F
GOSHEN         PTSUNNY   85  71  63 NW6       29.96F
SOUTH BEND     PTSUNNY   83  73  72 N9        29.96F

$$

INZ006>009-017-018-025>027-210000-
NORTHEAST INDIANA

CITY           SKY/WX    TMP DP  RH WIND       PRES   REMARKS
ANGOLA *+      SUNNY     84  81  89 SW5       29.97F HX  98
FORT WAYNE     CLOUDY    86  72  62 CALM      29.97F
KENDALLVILLE + CLOUDY   N/A N/A N/A W6        29.98S

$$

INZ028-029-035-036-043>045-051>053-210000-
WEST CENTRAL INDIANA

CITY           SKY/WX    TMP DP  RH WIND       PRES   REMARKS
LAFAYETTE      CLOUDY    87  78  74 SW7       29.95S HX 100
TERRE HAUTE    PTSUNNY   91  75  59 SW7       29.97F HX 101

$$

INZ030>032-037>040-046>048-054>057-064-065-210000-
CENTRAL INDIANA

CITY           SKY/WX    TMP DP  RH WIND       PRES   REMARKS
COLUMBUS       SUNNY     90  73  58 SW9       29.99F HX  98
GREENWOOD *+   MOSUNNY   87  75  66 SW9       30.00S HX  97
INDIANAPOLIS   PTSUNNY   87  75  67 SW14      29.97F HX  96
-EAGLE CREEK   SUNNY     87  74  64 SW7       29.97F HX  95
KOKOMO +       MOSUNNY   87  76  69 W7        29.99S HX  97
MT COMFORT *+  SUNNY     88  77  70 SW7       29.99F HX 100
SHELBYVILLE    SUNNY     89  76  65 SW10      29.98F HX 100

$$

INZ033-034-041-042-049-050-058-059-210000-
EAST CENTRAL INDIANA

CITY           SKY/WX    TMP DP  RH WIND       PRES   REMARKS
MUNCIE         SUNNY     89  70  53 W8        29.98F
RICHMOND +     MOSUNNY   82  77  83 SW7       30.02F

$$

INZ060-061-067>069-081>083-085>088-210000-
SOUTHWEST INDIANA

CITY           SKY/WX    TMP DP  RH WIND       PRES   REMARKS
EVANSVILLE     MOSUNNY   94  69  44 SW13      29.99F HX  99
HUNTINGBURG *+ CLOUDY    90  76  63 S8        29.99F HX 101

$$

INZ062-063-066-070>080-084-089>092-210000-
SOUTH CENTRAL AND SOUTHEAST INDIANA

CITY           SKY/WX    TMP DP  RH WIND       PRES   REMARKS
BLOOMINGTON    MOSUNNY   88  75  65 SW6       29.99F HX  97
MADISON *+     MOSUNNY   88  70  55 SW3       30.03S
SEYMOUR +      PTSUNNY   91  73  55 SW7       29.99F HX 100

$$





USA.gov is the U.S. government's official web portal to all federal, state and local government web resources and services.